Weather History for Kivalina, AK

Change the Weather History Date:

Thursday, January 3, 2013

  Actual Average Record
Temperature  
Mean Temperature 14 °F -  
Max Temperature 19 °F - - ()
Min Temperature 10 °F - - ()
Degree Days  
Heating Degree Days 50    
Moisture  
Dew Point 12 °F    
Average Humidity 90    
Maximum Humidity 100    
Minimum Humidity 84    
Precipitation  
Precipitation 0.03 in - - ()
Sea Level Pressure  
Sea Level Pressure 29.52 in    
Wind  
Wind Speed 15 mph (NNE)    
Max Wind Speed 20 mph    
Max Gust Speed -    
Visibility 4 miles    
Events Snow    
T = Trace of Precipitation, MM = Missing Value Source: NWS Daily Summary

Daily Weather History Graph

Daily Weather History Graph

Search for Another Location

Airport:

Trip Planner

Search our weather history database for the weather conditions in past years. The results will help you decide how hot, cold, wet, or windy it might be!

Date:

Astronomy

Jan. 03, 2013 Rise Set
Actual Time 1:18 PM AKST 2:47 PM AKST
Civil Twilight 11:08 AM AKST 4:57 PM AKST
Nautical Twilight 9:44 AM AKST 6:21 PM AKST
Astronomical Twilight 8:35 AM AKST 7:31 PM AKST
Moon 12:36 AM AKST (1/3) 12:16 PM AKST (1/3)
Length of Visible Light 5h 49m
Length of Day
1h 28m
Waning Gibbous, 64% of the Moon is Illuminated
Jan 3
Waning Gibbous
Jan 4
Last Quarter
Jan 11
New
Jan 18
First Quarter
Jan 26
Full

Hourly Weather History & Observations

Time (AKST) Temp. Windchill Dew Point Humidity Pressure Visibility Wind Dir Wind Speed Gust Speed Precip Events Conditions
12:53 AM 10.9 °F -4.7 °F 8.1 °F 88% 29.44 in 6.0 mi NNE 13.8 mph - 0.00 in Snow Light Snow
1:19 AM 10.4 °F -6.0 °F 8.6 °F 92% 29.44 in 6.0 mi NE 15.0 mph - 0.00 in Snow Light Snow
1:26 AM 10.4 °F -6.0 °F 8.6 °F 92% 29.44 in 5.0 mi NNE 15.0 mph - 0.00 in Snow Light Snow
1:39 AM 12.2 °F -3.7 °F 8.6 °F 85% 29.44 in 5.0 mi NNE 15.0 mph - 0.00 in Snow Light Snow
1:46 AM 12.2 °F -3.1 °F 8.6 °F 85% 29.44 in 4.0 mi NNE 13.8 mph - 0.00 in Snow Light Snow
1:53 AM 12.0 °F -2.7 °F 8.1 °F 84% 29.45 in 4.0 mi NNE 12.7 mph - 0.00 in Snow Light Snow
2:00 AM 12.2 °F -3.1 °F 8.6 °F 85% 29.45 in 4.0 mi NNE 13.8 mph - 0.00 in Snow Light Snow
2:28 AM 12.2 °F -3.7 °F 8.6 °F 85% 29.45 in 4.0 mi NNE 15.0 mph - 0.00 in Snow Light Snow
3:39 AM 10.4 °F -6.0 °F 8.6 °F 92% 29.46 in 3.0 mi NNE 15.0 mph - 0.00 in Snow Light Snow
3:53 AM 12.0 °F -4.5 °F 9.0 °F 88% 29.47 in 3.0 mi NNE 16.1 mph - 0.00 in Snow Light Snow
4:06 AM 10.4 °F -6.6 °F 8.6 °F 92% 29.46 in 2.5 mi NNE 16.1 mph - 0.00 in Snow Light Snow
4:15 AM 10.4 °F -5.4 °F 8.6 °F 92% 29.46 in 3.0 mi NNE 13.8 mph - 0.00 in Snow Light Snow
4:45 AM 12.2 °F -3.1 °F 8.6 °F 85% 29.46 in 2.5 mi NNE 13.8 mph - 0.00 in Snow Light Snow
4:53 AM 12.0 °F -3.4 °F 9.0 °F 88% 29.47 in 2.0 mi NNE 13.8 mph - 0.00 in Snow Light Snow
5:53 AM 12.0 °F -4.0 °F 9.0 °F 88% 29.47 in 3.0 mi NNE 15.0 mph - 0.00 in Snow Light Snow
6:04 AM 12.2 °F -3.7 °F 8.6 °F 85% 29.47 in 2.5 mi NNE 15.0 mph - 0.00 in Snow Light Snow
6:07 AM 12.2 °F -3.7 °F 8.6 °F 85% 29.47 in 3.0 mi NNE 15.0 mph - 0.00 in Snow Light Snow
6:53 AM 12.0 °F -4.5 °F 8.1 °F 84% 29.48 in 10.0 mi NNE 16.1 mph - 0.00 in   Overcast
7:53 AM 12.0 °F -4.0 °F 8.1 °F 84% 29.49 in 10.0 mi NNE 15.0 mph - 0.00 in   Overcast
8:40 AM 12.2 °F -4.8 °F 8.6 °F 85% 29.49 in 7.0 mi NNE 17.3 mph - 0.00 in   Overcast
8:53 AM 12.0 °F -5.1 °F 9.0 °F 88% 29.49 in 7.0 mi NNE 17.3 mph - 0.00 in Snow Light Snow
9:02 AM 12.2 °F -4.8 °F 10.4 °F 92% 29.49 in 5.0 mi NNE 17.3 mph - 0.00 in Snow Light Snow
9:28 AM 12.2 °F -3.7 °F 10.4 °F 92% 29.50 in 6.0 mi NNE 15.0 mph - 0.00 in Snow Light Snow
9:53 AM 12.9 °F -2.2 °F 10.0 °F 88% 29.52 in 6.0 mi NNE 13.8 mph - 0.00 in Snow Light Snow
10:39 AM 12.2 °F -3.7 °F 10.4 °F 92% 29.53 in 3.0 mi NNE 15.0 mph - 0.00 in Snow Light Snow
10:51 AM 12.2 °F -2.5 °F 10.4 °F 92% 29.53 in 2.5 mi North 12.7 mph - 0.00 in Snow Light Snow
10:53 AM 12.9 °F -1.6 °F 10.9 °F 92% 29.54 in 2.5 mi North 12.7 mph - 0.00 in Snow Light Snow
11:16 AM 12.2 °F -2.5 °F 10.4 °F 92% 29.53 in 3.0 mi North 12.7 mph - 0.00 in Snow Light Snow
11:35 AM 12.2 °F -3.7 °F 10.4 °F 92% 29.54 in 2.0 mi North 15.0 mph - 0.00 in Snow Light Snow
11:45 AM 12.2 °F -3.1 °F 8.6 °F 85% 29.54 in 4.0 mi NNE 13.8 mph - 0.00 in Snow Light Snow
11:53 AM 12.0 °F -4.0 °F 9.0 °F 88% 29.55 in 6.0 mi NNE 15.0 mph - 0.00 in Snow Light Snow
12:53 PM 12.0 °F -5.1 °F 9.0 °F 88% 29.54 in 9.0 mi North 17.3 mph - 0.00 in   Overcast
1:07 PM 12.2 °F -4.3 °F 8.6 °F 85% 29.55 in 8.0 mi NNE 16.1 mph - N/A   Overcast
1:38 PM 12.2 °F -5.8 °F 10.4 °F 92% 29.54 in 5.0 mi NNE 19.6 mph - 0.00 in Snow Light Snow
1:53 PM 14.0 °F -3.0 °F 10.9 °F 88% 29.55 in 4.0 mi NNE 18.4 mph - 0.00 in Snow Light Snow
2:07 PM 14.0 °F -2.5 °F 10.4 °F 86% 29.55 in 3.0 mi NNE 17.3 mph - 0.00 in Snow Light Snow
2:33 PM 14.0 °F -2.0 °F 10.4 °F 86% 29.54 in 2.5 mi NNE 16.1 mph - 0.00 in Snow Light Snow
2:53 PM 14.0 °F -1.4 °F 10.9 °F 88% 29.55 in 1.5 mi NNE 15.0 mph - 0.00 in Snow Light Snow
3:18 PM 14.0 °F -1.4 °F 12.2 °F 93% 29.55 in 3.0 mi NNE 15.0 mph - 0.00 in Snow Light Snow
3:53 PM 15.1 °F 0.5 °F 12.0 °F 88% 29.55 in 7.0 mi NNE 13.8 mph - 0.00 in Snow Light Snow
4:12 PM 15.8 °F 1.4 °F 12.2 °F 86% 29.55 in 2.5 mi NNE 13.8 mph - 0.00 in Snow Light Snow
4:35 PM 15.8 °F 0.9 °F 12.2 °F 86% 29.55 in 3.0 mi NNE 15.0 mph - 0.00 in Snow Light Snow
4:53 PM 15.1 °F -0.6 °F 12.9 °F 91% 29.55 in 4.0 mi NNE 16.1 mph - 0.00 in Snow Light Snow
5:24 PM 15.8 °F 0.9 °F 12.2 °F 86% 29.56 in 4.0 mi NNE 15.0 mph - 0.00 in Snow Light Snow
5:53 PM 16.0 °F 0.6 °F 12.9 °F 88% 29.55 in 5.0 mi NNE 16.1 mph - 0.00 in Snow Light Snow
6:22 PM 15.8 °F -1.1 °F 14.0 °F 93% 29.55 in 1.8 mi NNE 19.6 mph - 0.00 in Snow Light Snow
6:53 PM 16.0 °F -0.9 °F 14.0 °F 92% 29.55 in 1.2 mi NNE 19.6 mph - 0.00 in Snow Light Snow
7:03 PM 15.8 °F -1.1 °F 14.0 °F 93% 29.55 in 1.2 mi NNE 19.6 mph - 0.00 in Snow Light Snow
7:53 PM 17.1 °F 3.0 °F 15.1 °F 92% 29.55 in 1.2 mi NNE 13.8 mph - 0.01 in Snow Light Snow
8:08 PM 19.4 °F 6.0 °F 17.6 °F 93% 29.55 in 2.0 mi NE 13.8 mph - 0.00 in Snow Light Snow
8:17 PM 19.4 °F 6.6 °F 17.6 °F 93% 29.56 in 1.2 mi NE 12.7 mph - 0.00 in Snow Light Snow
8:24 PM 19.4 °F 7.2 °F 19.4 °F 100% 29.56 in 0.8 mi NNE 11.5 mph - 0.00 in Snow Light Snow
8:36 PM 19.4 °F 7.9 °F 19.4 °F 100% 29.56 in 0.8 mi NNE 10.4 mph - 0.01 in Snow Light Snow
8:49 PM 19.4 °F 7.9 °F 19.4 °F 100% 29.56 in 1.2 mi NNE 10.4 mph - 0.02 in Snow Light Snow
8:53 PM 19.0 °F 6.8 °F 18.0 °F 96% 29.57 in 1.2 mi NNE 11.5 mph - 0.02 in Snow Light Snow
9:05 PM 19.4 °F 6.6 °F 17.6 °F 93% 29.57 in 1.8 mi NNE 12.7 mph - 0.00 in Snow Light Snow
9:14 PM 19.4 °F 6.0 °F 17.6 °F 93% 29.56 in 2.5 mi NNE 13.8 mph - 0.00 in Snow Light Snow
9:19 PM 19.4 °F 6.0 °F 17.6 °F 93% 29.56 in 3.0 mi NNE 13.8 mph - 0.00 in Snow Light Snow
9:53 PM 19.0 °F 5.6 °F 18.0 °F 96% 29.57 in 6.0 mi NNE 13.8 mph - 0.00 in   Overcast
10:53 PM 18.0 °F 3.1 °F 15.1 °F 88% 29.57 in 5.0 mi NNE 16.1 mph - N/A   Overcast
11:53 PM 16.0 °F 2.3 °F 12.9 °F 88% 29.59 in 5.0 mi NNE 12.7 mph - N/A   Mostly Cloudy